Regional Weather Roundup
Issued by NWS Newport/Morehead, NC

Current Version | Previous Version | Graphics & Text | Print | Product List | Glossary Off
Versions: 1 2 3 4 5 6 7 8 9 10 11 12 13 14 15 16 17 18 19 20 21 22 23 24 25 26 27 28 29 30 31 32 33 34 35 36 37 38 39 40 41 42 43 44 45 46 47 48 49 50
000 ASUS42 KMHX 300713 RWRMHX WEATHER ROUNDUP FOR EASTERN NORTH CAROLINA NATIONAL WEATHER SERVICE NEWPORT/MOREHEAD CITY NC 300 AM EDT TUE JUN 30 2015 NOTE: "FAIR" INDICATES FEW OR NO CLOUDS BELOW 12,000 FEET WITH NO SIGNIFICANT WEATHER AND/OR OBSTRUCTIONS TO VISIBILITY NCZ015>017-031-032-045>047-102-103-300800- NORTH COAST CITY SKY/WX TMP DP RH WIND PRES REMARKS EDENTON CLEAR 74 71 89 S5 29.94S ELIZABETH CITY CLEAR 74 71 91 CALM 29.94F KITTY HAWK SUNNY 73 69 88 SE3 29.93F MANTEO CLEAR 73 70 91 SE5 29.94F $$ NCZ045>047-081-094-103-104-300800- CENTRAL COAST CITY SKY/WX TMP DP RH WIND PRES REMARKS FRISCO CLEAR 76 71 85 W6 29.95F SWANQUARTER N/A 77 N/A N/A SW3G12 29.91S $$ NCZ095-097-098-100-101-300800- SOUTHERN COAST CITY SKY/WX TMP DP RH WIND PRES REMARKS BEAUFORT CLEAR 77 71 82 SW8 29.95F CEDAR ISLAND N/A 75 N/A N/A S3 29.97F JACKSONVILLE CLEAR 74 69 85 SW7 29.94F PINEY ISLAND SUNNY N/A N/A N/A SW5 29.94F WILMINGTON CLEAR 76 71 85 SW8 29.95F $$ NCZ011>013-027>030-043-044-078>080-089-090>093-098-300800- COASTAL PLAIN CITY SKY/WX TMP DP RH WIND PRES REMARKS AHOSKIE CLEAR 67 65 91 CALM 29.93F CLINTON CLEAR 70 69 98 CALM 29.94F ELIZABETHTOWN CLEAR 72 68 89 CALM 29.95F GOLDSBORO CLEAR 72 70 93 VRB2 29.91F GREENVILLE CLEAR 72 72 100 SW5 29.95S HAVELOCK CLEAR 73 69 87 SW5 29.95F KENANSVILLE CLEAR 69 67 96 CALM 29.95F KINSTON CLEAR 70 69 95 SW3 29.94F NEW BERN CLEAR 73 69 87 SW6 29.95F RICHLANDS CLEAR 70 64 83 SW6 29.94F ROCKY MOUNT CLEAR 68 67 96 CALM 29.93F WASHINGTON CLEAR 72 69 91 S3 29.94F WHITEVILLE CLEAR 73 69 88 SW5 29.95S $$ AMZ130-135-150-152-154-156-158-170-250-252-270-ANZ085-086-088-633-658-670-300800- MARINE OBSERVATIONS STATION/POSITION TIME TEMP WIND PRES WAVE SWELL AIR SEA DIR/SP/G HT/PER HT/PER (UTC) (F) (DEG/KT/KT) (MB) (FT/S) (FT/S) CHESAPEAKE LIGHT 0700 75 160/ 9/ 10 1014.5 64 E VA BEACH 0650 75 75 110/ 6/ 8 1013.9 3/ 8 3/ 8 DUCK 0600 73 71 140/ 6/ 7 1013.3 2 E DUCK 0611 74 N/A 2/ 8 OREGON INLET 0600 73 71 110/ 4/ 5 1014.4 13E OREGON INLT 0700 75 N/A 4/ 8 HATTERAS CG 0600 77 81 230/ 5/ 7 1014.3 DIAMOND BUOY 0650 79 80 240/ 10/ 12 1014.2 4/ 8 3/ 8 CAPE LOOKOUT 0700 79 230/ 6/ 9 1014.0 BEAUFORT LAB 0600 79 81 230/ 3/ 7 1013.6 30 SE NEW RVR IN 0608 81 81 250/ 14/ 17 1014.6 27 SE WRIGHTSVLE 0600 81 270/ 14/ 17 N/A 5 SE WRIGHTSVLE NOT AVBL 225 S CAPE HAT 0650 77 80 200/ 16/ 19 1017.5 5/ 6 3/ 9 41 SE CHARLESTON 0650 81 83 240/ 16/ 17 1014.9 4/ 7 3/ 7 $$

USA.gov is the U.S. government's official web portal to all federal, state and local government web resources and services.